TimeHST,TemperatureF,Dew PointF,Humidity,Sea Level PressureIn,VisibilityMPH,Wind Direction,Wind SpeedMPH,Gust SpeedMPH,PrecipitationIn,Events,Conditions,WindDirDegrees,DateUTC
12:56 AM,66.9,52.0,59,30.13,10.0,Calm,Calm,-,N/A,,Mostly Cloudy,0,2013-02-20 10:56:00
1:56 AM,66.0,54.0,65,30.12,10.0,Calm,Calm,-,N/A,,Partly Cloudy,0,2013-02-20 11:56:00
2:56 AM,66.0,55.9,70,30.11,10.0,SE,3.5,-,N/A,,Mostly Cloudy,140,2013-02-20 12:56:00
3:56 AM,72.0,64.0,76,30.10,10.0,West,5.8,-,N/A,,Partly Cloudy,260,2013-02-20 13:56:00
4:56 AM,68.0,59.0,73,30.11,10.0,East,4.6,-,N/A,,Scattered Clouds,100,2013-02-20 14:56:00
5:56 AM,66.9,63.0,87,30.12,10.0,ESE,3.5,-,N/A,,Partly Cloudy,110,2013-02-20 15:56:00
6:56 AM,66.9,60.1,79,30.14,10.0,Calm,Calm,-,N/A,,Overcast,0,2013-02-20 16:56:00
7:56 AM,68.0,62.1,81,30.15,10.0,ENE,4.6,-,N/A,,Clear,60,2013-02-20 17:56:00
8:56 AM,75.0,61.0,62,30.17,10.0,Calm,Calm,-,N/A,,Mostly Cloudy,0,2013-02-20 18:56:00
9:30 AM,-9999,-9999,N/A,-9999,-9999.0,North,-9999.0,-,N/A,,Unknown,0,2013-02-20 19:30:00
9:56 AM,73.9,62.1,66,30.18,10.0,WNW,4.6,-,N/A,,Scattered Clouds,300,2013-02-20 19:56:00
10:56 AM,75.9,63.0,64,30.17,10.0,WSW,6.9,-,N/A,,Mostly Cloudy,250,2013-02-20 20:56:00
11:56 AM,77.0,61.0,58,30.17,10.0,West,8.1,-,N/A,,Overcast,270,2013-02-20 21:56:00
12:56 PM,79.0,62.1,56,30.14,10.0,West,10.4,-,0.00,,Partly Cloudy,260,2013-02-20 22:56:00
1:56 PM,78.1,61.0,56,30.12,10.0,West,9.2,-,0.00,,Scattered Clouds,270,2013-02-20 23:56:00
2:56 PM,80.1,61.0,52,30.10,10.0,West,8.1,-,N/A,,Partly Cloudy,260,2013-02-21 00:56:00
3:56 PM,79.0,59.0,50,30.09,10.0,West,8.1,-,N/A,,Scattered Clouds,270,2013-02-21 01:56:00
4:56 PM,82.0,53.1,37,30.09,10.0,East,11.5,18.4,N/A,,Clear,80,2013-02-21 02:56:00
5:56 PM,79.0,53.1,40,30.11,10.0,East,9.2,-,N/A,,Partly Cloudy,80,2013-02-21 03:56:00
6:56 PM,75.9,52.0,43,30.14,10.0,Variable,6.9,-,N/A,,Clear,0,2013-02-21 04:56:00
7:56 PM,73.0,54.0,51,30.14,10.0,Variable,6.9,-,N/A,,Clear,0,2013-02-21 05:56:00
8:56 PM,71.1,55.9,59,30.17,10.0,Calm,Calm,-,N/A,,Clear,0,2013-02-21 06:56:00
9:56 PM,70.0,55.9,61,30.17,10.0,Calm,Calm,-,N/A,,Clear,0,2013-02-21 07:56:00
10:56 PM,68.0,55.9,65,30.17,10.0,Calm,Calm,-,N/A,,Partly Cloudy,0,2013-02-21 08:56:00
11:56 PM,68.0,55.0,63,30.17,10.0,Calm,Calm,-,N/A,,Partly Cloudy,0,2013-02-21 09:56:00